This is the latest recevied weather packets stored in our database for station/object SP1BMW-13. If no packets are shown the sender has not sent any weather packets the latest 10 day(s).
| Time | Temp. | Humidity | Pressure | Rain* | Wind** | Luminosity | Snow |
|---|---|---|---|---|---|---|---|
| 1777310393 | 11.11° C | 38% | 1021.8 hPa | 0 mm | 2.68 m/s, 292° | 44 W/m² | - |
| 1777310333 | 11.11° C | 40% | 1021.8 hPa | 0 mm | 1.34 m/s, 307° | 43 W/m² | - |
| 1777310273 | 11.11° C | 39% | 1021.9 hPa | 0 mm | 1.34 m/s, 348° | 44 W/m² | - |
| 1777310213 | 11.11° C | 39% | 1021.7 hPa | 0 mm | 2.68 m/s, 294° | 45 W/m² | - |
| 1777310152 | 11.11° C | 40% | 1021.7 hPa | 0 mm | 1.79 m/s, 309° | 45 W/m² | - |
| 1777310092 | 11.11° C | 39% | 1021.7 hPa | 0 mm | 1.34 m/s, 334° | 46 W/m² | - |
| 1777310032 | 11.67° C | 39% | 1021.8 hPa | 0 mm | 1.34 m/s, 323° | 49 W/m² | - |
| 1777309973 | 11.67° C | 39% | 1021.8 hPa | 0 mm | 2.24 m/s, 19° | 51 W/m² | - |
| 1777309912 | 11.67° C | 39% | 1021.7 hPa | 0 mm | 1.79 m/s, 346° | 54 W/m² | - |
| 1777309852 | 11.67° C | 39% | 1021.8 hPa | 0 mm | 1.79 m/s, 349° | 58 W/m² | - |
| 1777309793 | 11.67° C | 39% | 1021.9 hPa | 0 mm | 0.89 m/s, 308° | 59 W/m² | - |
| 1777309732 | 11.67° C | 40% | 1021.8 hPa | 0 mm | 0.89 m/s, 286° | 60 W/m² | - |
| 1777309673 | 11.67° C | 39% | 1021.9 hPa | 0 mm | 1.34 m/s, 343° | 60 W/m² | - |
| 1777309613 | 11.67° C | 39% | 1021.9 hPa | 0 mm | 1.79 m/s, 275° | 59 W/m² | - |
| 1777309552 | 11.67° C | 40% | 1021.8 hPa | 0 mm | 1.34 m/s, 315° | 62 W/m² | - |
| 1777309492 | 11.67° C | 39% | 1021.7 hPa | 0 mm | 0.89 m/s, 336° | 65 W/m² | - |
| 1777309433 | 11.67° C | 40% | 1021.7 hPa | 0 mm | 2.24 m/s, 295° | 66 W/m² | - |
| 1777309373 | 11.67° C | 40% | 1021.8 hPa | 0 mm | 0.89 m/s, 333° | 69 W/m² | - |
| 1777309313 | 11.67° C | 40% | 1022 hPa | 0 mm | 2.24 m/s, 318° | 72 W/m² | - |
| 1777309253 | 11.67° C | 40% | 1021.8 hPa | 0 mm | 0.45 m/s, 48° | 75 W/m² | - |
| 1777309192 | 11.67° C | 40% | 1021.9 hPa | 0 mm | 0.45 m/s, 320° | 78 W/m² | - |
| 1777309133 | 11.67° C | 40% | 1021.9 hPa | 0 mm | 1.79 m/s, 48° | 78 W/m² | - |
| 1777309072 | 11.67° C | 39% | 1021.9 hPa | 0 mm | 0.89 m/s, 319° | 79 W/m² | - |
| 1777309013 | 11.67° C | 38% | 1021.9 hPa | 0 mm | 2.68 m/s, 302° | 81 W/m² | - |
| 1777308953 | 12.22° C | 39% | 1021.8 hPa | 0 mm | 2.24 m/s, 317° | 83 W/m² | - |
* Rain latest hour (hover to see other rain measurements)
** Current wind speed in m/s (hover to see current wind gust speed)